Notices

What's New in latest Release from April 7th, 2021:

- Updated Glossary, including Speed of Maximum Gust, and Total Hourly Precipitation

- Updated national and regional climate services offices contacts and prices information

- Addition of station inventory lists for 1981-2010, 1971-2000, and 1961-1990 Normals.

If you haven't already, please take our survey and provide feedback about our website: https://eccc.sondage-survey.ca/f/LanguageSelection.aspx?s=442ca660-fcf1-47c0-95a9-59707d6fd709

Hourly Data Report for June 01, 2020

TRENTON A
ONTARIO
Current Station Operator: DND

44°07'00.000" N
77°32'00.000" W
86.30 m
6158875
71621
YTR

Download Data

Hourly Data (June 2020)
Hourly Data Report for June 1, 2020
TIME
LST
Temp Definition
°C
Dew Point Definition
°C
Rel Hum Definition
%
Precip. Amount Definition
mm

Wind Dir Definition
10's deg

Wind Spd Definition
km/h
Visibility Definition
km
Stn Press Definition
kPa
Hmdx Definition


Wind Chill Definition


Weather Definition


00:00 9.2 3.5 68   29 8 24.1 101.26     Cloudy
01:00 9.2 4.5 72   27 9 24.1 101.22     Cloudy
02:00 8.9 5.7 80     0 24.1 101.20     Mostly Cloudy
03:00 7.6 5.4 86   2 4 24.1 101.19     Mostly Cloudy
04:00 6.4 5.0 91   27 4 24.1 101.23     Mainly Clear
05:00 5.7 4.9 95   3 4 24.1 101.27     Mainly Clear
06:00 9.7 5.7 76     0 24.1 101.30     Mostly Cloudy
07:00 11.6 5.2 65   31 8 24.1 101.33     Mainly Clear
08:00 13.1 4.7 57   35 8 24.1 101.28     Mainly Clear
09:00 14.4 4.7 52   23 5 24.1 101.23     Mainly Clear
10:00 16.2 3.8 44   30 15 24.1 101.20     Mostly Cloudy
11:00 13.5 6.1 61   21 18 24.1 101.16     Mostly Cloudy
12:00 14.4 6.3 58   21 28 24.1 101.06     Mostly Cloudy
13:00 15.7 5.3 50   22 26 24.1 101.00     Mainly Clear
14:00 17.0 3.4 41   22 24 24.1 100.90     Mostly Cloudy
15:00 17.7 4.2 41   22 21 24.1 100.79     Mostly Cloudy
16:00 20.4 4.9 36   25 28 24.1 100.69     Mainly Clear
17:00 21.0 4.5 34   25 26 24.1 100.64     Mainly Clear
18:00 20.2 5.7 39   24 17 24.1 100.64     Mainly Clear
19:00 20.3 3.9 34   30 17 24.1 100.65     Mainly Clear
20:00 15.4 8.0 61   24 11 24.1 100.68     Mostly Cloudy
21:00 15.6 7.3 58   24 11 24.1 100.72     Cloudy
22:00 14.8 7.7 62   25 13 24.1 100.70     Mainly Clear
23:00 15.1 7.4 60   24 11 24.1 100.66     Mostly Cloudy

Notes on Data Quality.

Legend

  • E = Estimated
  • M = Missing
  • NA = Not Available*
  • [empty] = Indicates an unobserved value
Date modified: